Location: Newark
(42.8481°N, 0.4872°E)
Time: 17:01:35
(UTC+00:00)

Vanguard 2 - Pass Details

Date: 30 October 2020
Orbit: 554 x 2937 km, 32.9° (Epoch: 27 November)

Event Time Altitude Azimuth Distance (km) Brightness Sun altitude
Rises 18:33:12 0° 228° (SW) 4,801 12.4 -18.9°
Reaches altitude 10° 18:36:08 10° 222° (SW) 4,105 11.8 -19.5°
Maximum altitude 18:47:05 45° 155° (SSE) 3,033 10.3 -21.5°
Enters shadow 18:54:58 28° 106° (ESE) 4,119 10.6 -22.9°
Drops below altitude 10° 19:02:33 10° 91° (E) 5,709 - -24.3°
Sets 19:07:29 0° 86° (E) 6,791 - -25.2°
